Location: Unspecified
(54.1780°N, 0.0000°E)
Time: 00:47:24
(UTC+00:00)

Transit 2A - Pass Details

Date: 20 June 2019
Orbit: 596 x 962 km, 66.7° (Epoch: 18 August)

Event Time Altitude Azimuth Distance (km) Brightness Sun altitude
Rises 10:15:10 0° 315° (NW) 3,483 9.0 53.4°
Reaches altitude 10° 10:18:08 10° 303° (WNW) 2,480 8.4 53.7°
Maximum altitude 10:22:42 25° 250° (WSW) 1,552 7.8 54.1°
Drops below altitude 10° 10:26:54 10° 196° (SSW) 2,264 8.9 54.5°
Sets 10:29:30 0° 183° (S) 3,119 9.5 54.8°
